Marham, United Kingdom

5:24 PM BST on August 25, 2016 (GMT +0100)
Marham Air Base

Weather History for EGYM - May, 2014

Change the Weather History Date:

Saturday, May 17, 2014

  Actual Average Record
Temperature  
Mean Temperature 63 °F -  
Max Temperature 73 °F - - ()
Min Temperature 53 °F - - ()
Degree Days  
Heating Degree Days 2    
Growing Degree Days 13 (Base 50)    
Moisture  
Dew Point 51 °F    
Average Humidity 63    
Maximum Humidity 88    
Minimum Humidity 37    
Precipitation  
Precipitation 0.00 in - - ()
Sea Level Pressure  
Sea Level Pressure 30.20 in    
Wind  
Wind Speed 5 mph ()    
Max Wind Speed 13 mph    
Max Gust Speed -    
Visibility 10.6 miles    
Events      
T = Trace of Precipitation, MM = Missing Value Source: Averaged Metar Reports

Daily Weather History Graph

Daily Weather History Graph

Search for Another Location

Airport or City:

Trip Planner

Search our weather history database for the weather conditions in past years. The results will help you decide how hot, cold, wet, or windy it might be!

Date:

Astronomy

May. 17, 2014 Rise Set
Actual Time 4:58 AM BST 8:50 PM BST
Civil Twilight 4:14 AM BST 9:34 PM BST
Nautical Twilight 3:13 AM BST 10:37 PM BST
Astronomical Twilight 1:10 AM BST 12:21 AM BST
Moon 11:35 PM BST (5/17) 7:26 AM BST (5/17)
Length of Visible Light 17h 20m
Length of Day
15h 52m
Waning Gibbous, 91% of the Moon is Illuminated
May 17
Waning Gibbous
May 21
Last Quarter
May 28
New
Jun 5
First Quarter
Jun 13
Full

Hourly Weather History & Observations

Time (BST) Temp. Dew Point Humidity Pressure Visibility Wind Dir Wind Speed Gust Speed Precip Events Conditions
12:00 AM 59 °F 53 °F 74% 30.34 in 10 mi South 5.8 mph - -   Overcast
12:50 AM 57.2 °F 50.0 °F 77% 30.33 in 6.2 mi South 5.8 mph - N/A   Overcast
1:00 AM 57 °F 49 °F 68% 30.33 in 15 mi South 5.8 mph - -   Overcast
1:50 AM 55.4 °F 48.2 °F 77% 30.30 in 6.2 mi South 4.6 mph - N/A   Overcast
2:00 AM 56 °F 48 °F 67% 30.32 in 16 mi South 4.6 mph - -   Overcast
2:50 AM 55.4 °F 48.2 °F 77% 30.30 in 6.2 mi South 4.6 mph - N/A   Mostly Cloudy
3:00 AM 55 °F 48 °F 69% 30.30 in 16 mi South 4.6 mph - -   Mostly Cloudy
3:50 AM 55.4 °F 48.2 °F 77% 30.27 in 6.2 mi Calm Calm - N/A   Overcast
4:00 AM 55 °F 49 °F 73% 30.30 in 15 mi Calm Calm - -   Overcast
4:50 AM 53.6 °F 48.2 °F 82% 30.27 in 6.2 mi SE 2.3 mph - N/A   Scattered Clouds
5:00 AM 54 °F 48 °F 75% 30.28 in 14 mi SE 2.3 mph - -   Mostly Cloudy
5:50 AM 53.6 °F 50.0 °F 88% 30.27 in 6.2 mi SE 2.3 mph - N/A   Scattered Clouds
6:00 AM 54 °F 49 °F 79% 30.28 in 14 mi SE 2.3 mph - -   Partly Cloudy
6:50 AM 55.4 °F 51.8 °F 88% 30.27 in 6.2 mi WSW 2.3 mph - N/A   Overcast
7:00 AM 55 °F 52 °F 86% 30.29 in 11 mi WSW 2.3 mph - -   Overcast
7:50 AM 59.0 °F 53.6 °F 82% 30.27 in 6.2 mi SE 1.2 mph - N/A   Overcast
8:00 AM 58 °F 53 °F 78% 30.28 in 10 mi SE 1.2 mph - -   Overcast
8:50 AM 59.0 °F 51.8 °F 77% 30.27 in 6.2 mi NNW 5.8 mph - N/A   Overcast
9:00 AM 60 °F 52 °F 66% 30.27 in 11 mi NNW 5.8 mph - -   Overcast
9:50 AM 64.4 °F 48.2 °F 56% 30.24 in 6.2 mi NW 2.3 mph - N/A   Partly Cloudy
10:00 AM 64 °F 48 °F 45% 30.26 in 17 mi NW 2.3 mph - -   Scattered Clouds
10:50 AM 66.2 °F 48.2 °F 52% 30.24 in 6.2 mi West 2.3 mph - N/A   Partly Cloudy
11:00 AM 66 °F 49 °F 43% 30.24 in 17 mi West 2.3 mph - -   Scattered Clouds
11:50 AM 68.0 °F 51.8 °F 56% 30.21 in 6.2 mi SSW 5.8 mph - N/A   Unknown
12:00 PM 68 °F 51 °F 45% 30.23 in 17 mi SSW 5.8 mph - -  
12:50 PM 69.8 °F 51.8 °F 53% 30.21 in 6.2 mi WSW 6.9 mph - N/A   Unknown
1:00 PM 70 °F 52 °F 43% 30.22 in 16 mi WSW 6.9 mph - -  
1:50 PM 71.6 °F 51.8 °F 50% 30.18 in 6.2 mi SW 8.1 mph - N/A   Unknown
2:00 PM 72 °F 52 °F 39% 30.20 in 19 mi SW 8.1 mph - -  
2:50 PM 71.6 °F 51.8 °F 50% 30.15 in 6.2 mi WSW 8.1 mph - N/A   Partly Cloudy
3:00 PM 72 °F 52 °F 39% 30.18 in 19 mi WSW 8.1 mph - -   Scattered Clouds
3:50 PM 71.6 °F 51.8 °F 50% 30.15 in 6.2 mi SW 10.4 mph - N/A   Partly Cloudy
4:00 PM 72 °F 51 °F 37% 30.15 in 22 mi SW 10.4 mph - -   Scattered Clouds
4:50 PM 71.6 °F 51.8 °F 50% 30.12 in 6.2 mi WSW 12.7 mph - N/A   Partly Cloudy
5:00 PM 71 °F 52 °F 40% 30.13 in 22 mi WSW 12.7 mph - -   Scattered Clouds
5:50 PM 71.6 °F 51.8 °F 50% 30.09 in 6.2 mi WSW 9.2 mph - N/A   Unknown
6:00 PM 72 °F 53 °F 40% 30.12 in 19 mi WSW 9.2 mph - -  
6:50 PM 69.8 °F 51.8 °F 53% 30.09 in 6.2 mi SW 9.2 mph - N/A   Unknown
7:00 PM 70 °F 52 °F 43% 30.10 in 19 mi SW 9.2 mph - -  
7:50 PM 68.0 °F 53.6 °F 60% 30.06 in 6.2 mi SW 5.8 mph - N/A   Unknown
8:00 PM 67 °F 54 °F 54% 30.09 in 19 mi SW 5.8 mph - -  
8:50 PM 64.4 °F 53.6 °F 68% 30.06 in 6.2 mi SSW 4.6 mph - N/A   Unknown
9:00 PM 64 °F 53 °F 59% 30.09 in 19 mi SSW 4.6 mph - -  
9:50 PM 60.8 °F 51.8 °F 72% 30.09 in 6.2 mi South 2.3 mph - N/A   Unknown
10:00 PM 60 °F 53 °F 69% 30.09 in 16 mi South 2.3 mph - -  
10:50 PM 60.8 °F 53.6 °F 77% 30.06 in 6.2 mi SSE 9.2 mph - N/A   Partly Cloudy
11:00 PM 62 °F 54 °F 68% 30.09 in 8 mi SSE 9.2 mph - -   Scattered Clouds
11:50 PM 59.0 °F 53.6 °F 82% 30.06 in 6.2 mi SSE 8.1 mph - N/A   Unknown